This demonstration page uses our WeatherBlox Daily Observations layout. Learn more.

Left ArrowRight Arrow

44.8408, -93.29828

Hourly Observations for September 22, 2019

Temp ( °F °C ) Dew Point ( °F °C ) Humidity (%) Winds ( mph kmh ) Pressure ( in mb ) Visibility ( mi km ) Precip ( " mm )
12:53 am 00:53 Mostly Clear 69 20.6 58 14.4 68 68 WSW 5 7 29.83 1010 10 16 0.00 0.00
1:53 am 01:53 Partly Cloudy 68 20 57 13.9 68 68 SW 5 7 29.83 1010 10 16 0.00 0.00
2:53 am 02:53 Mostly Cloudy 66 18.9 56 13.3 70 70 W 6 9 29.82 1010 10 16 0.00 0.00
3:53 am 03:53 Cloudy 65 18.3 57 13.9 76 76 W 6 9 29.82 1010 10 16 0.00 0.00
4:53 am 04:53 Cloudy 64 17.8 57 13.9 78 78 WNW 6 9 29.81 1010 10 16 0.00 0.00
5:53 am 05:53 Cloudy 64 17.8 56 13.3 75 75 W 5 7 29.82 1010 10 16 0.00 0.00
6:53 am 06:53 Cloudy 63 17.2 56 13.3 78 78 W 6 9 29.83 1010 10 16 0.00 0.00
7:53 am 07:53 Mostly Cloudy 61 16.1 56 13.3 84 84 WNW 5 7 29.85 1011 10 16 0.00 0.00
8:53 am 08:53 Mostly Cloudy 65 18.3 57 13.9 76 76 WNW 9 15 29.84 1011 10 16 0.00 0.00
9:45 am 09:45 Cloudy 64 17.8 57 13.9 78 78 NW 9 15 29.86 1011 10 16 0.00 0.00
9:53 am 09:53 Cloudy 65 18.3 57 13.9 76 76 WNW 10 17 29.86 1011 10 16 0.00 0.00
10:53 am 10:53 Cloudy 64 17.8 57 13.9 78 78 NW 9 15 29.87 1012 10 16 0.00 0.00
11:53 am 11:53 Cloudy 64 17.8 56 13.3 75 75 NW 8 13 29.85 1011 10 16 0.00 0.00
12:03 pm 12:03 Cloudy 65 18.3 57 13.9 76 76 NNW 9 15 29.84 1011 10 16 0.00 0.00
12:53 pm 12:53 Cloudy 66 18.9 55 12.8 68 68 N 6 9 29.81 1010 10 16 0.00 0.00
1:39 pm 13:39 Mostly Cloudy 68 20 55 12.8 63 63 NNW 10 17 29.83 1010 10 16 0.00 0.00
1:53 pm 13:53 Mostly Cloudy 68 20 54 12.2 61 61 WNW 14 22 29.84 1011 10 16 0.00 0.00
2:53 pm 14:53 Cloudy 65 18.3 51 10.6 61 61 NW 13 20 29.85 1011 10 16 0.00 0.00
3:53 pm 15:53 Cloudy with Light Rain 62 16.7 54 12.2 75 75 WNW 7 11 29.86 1011 10 16 0.01 0.25
4:53 pm 16:53 Cloudy with Light Rain 62 16.7 54 12.2 75 75 WNW 8 13 29.87 1012 10 16 0.00 0.00
5:53 pm 17:53 Mostly Cloudy 61 16.1 54 12.2 78 78 WNW 6 9 29.88 1012 10 16 0.00 0.00
6:53 pm 18:53 Mostly Cloudy 61 16.1 54 12.2 78 78 WNW 5 7 29.87 1012 10 16 0.00 0.00
7:53 pm 19:53 Partly Cloudy 60 15.6 53 11.7 78 78 SW 5 7 29.90 1013 10 16 0.00 0.00
8:53 pm 20:53 Mostly Clear 59 15 54 12.2 83 83 SW 5 7 29.91 1013 10 16 0.00 0.00
9:53 pm 21:53 Mostly Clear 58 14.4 54 12.2 87 87 SW 5 7 29.92 1013 10 16 0.00 0.00
10:53 pm 22:53 Mostly Clear 58 14.4 54 12.2 87 87 W 3 6 29.92 1013 10 16 0.00 0.00
11:53 pm 23:53 Partly Cloudy 58 14.4 53 11.7 84 84 WSW 5 7 29.92 1013 10 16 0.00 0.00

Powered by AerisWeather